| time (UTC) | temp F | wind direction | speed knots | gust knots | rain 1hr in | rain 24hr in | rain mn in | humidity % | barometer mb |
| 20260507203002 | 53 | 126 | 0.0 | 0.9 | 0.00 | 0.00 | 0.00 | 74 | 1016.0 |
| 20260507201504 | 54 | 126 | 0.0 | 1.7 | 0.00 | 0.00 | 0.00 | 73 | 1015.8 |
| 20260507200003 | 54 | 79 | 0.0 | 0.9 | 0.00 | 0.00 | 0.00 | 73 | 1015.7 |
| 20260507194500 | 54 | 79 | 0.0 | 2.6 | 0.00 | 0.00 | 0.00 | 72 | 1015.7 |
| 20260507193001 | 55 | 128 | 0.0 | 1.7 | 0.00 | 0.00 | 0.00 | 71 | 1015.6 |
| 20260507191501 | 56 | 42 | 0.9 | 2.6 | 0.00 | 0.00 | 0.00 | 70 | 1015.7 |
| 20260507190004 | 57 | 165 | 0.0 | 2.6 | 0.00 | 0.00 | 0.00 | 67 | 1015.7 |
| 20260507184501 | 57 | 176 | 0.0 | 1.7 | 0.00 | 0.00 | 0.00 | 65 | 1015.6 |
| 20260507183001 | 58 | 213 | 0.9 | 4.3 | 0.00 | 0.00 | 0.00 | 65 | 1015.6 |
| 20260507181501 | 57 | 144 | 0.9 | 2.6 | 0.00 | 0.00 | 0.00 | 66 | 1015.7 |
| 20260507180004 | 56 | 130 | 1.7 | 4.3 | 0.00 | 0.00 | 0.00 | 67 | 1015.7 |
| 20260507174503 | 55 | 105 | 1.7 | 6.1 | 0.00 | 0.00 | 0.00 | 70 | 1015.7 |
| 20260507173001 | 55 | 171 | 2.6 | 7.8 | 0.00 | 0.00 | 0.00 | 71 | 1015.8 |
| 20260507171503 | 55 | 137 | 2.6 | 6.1 | 0.00 | 0.00 | 0.00 | 72 | 1015.8 |
| 20260507170011 | 55 | 152 | 2.6 | 8.7 | 0.00 | 0.00 | 0.00 | 71 | 1015.9 |
| 20260507164501 | 56 | 161 | 5.2 | 8.7 | 0.00 | 0.00 | 0.00 | 71 | 1015.8 |
| 20260507163000 | 57 | 136 | 6.1 | 8.7 | 0.00 | 0.00 | 0.00 | 70 | 1015.8 |
| 20260507161502 | 57 | 162 | 4.3 | 10.4 | 0.00 | 0.00 | 0.00 | 69 | 1015.7 |
| 20260507160003 | 58 | 154 | 4.3 | 9.6 | 0.00 | 0.00 | 0.00 | 67 | 1015.7 |
| 20260507154501 | 59 | 146 | 5.2 | 10.4 | 0.00 | 0.00 | 0.00 | 64 | 1015.8 |
| 20260507153001 | 59 | 157 | 4.3 | 7.8 | 0.00 | 0.00 | 0.00 | 60 | 1015.8 |
| 20260507151501 | 59 | 242 | 3.5 | 7.0 | 0.00 | 0.00 | 0.00 | 61 | 1015.8 |
| 20260507150003 | 60 | 170 | 2.6 | 7.8 | 0.00 | 0.00 | 0.00 | 59 | 1015.9 |
| 20260507144501 | 61 | 158 | 4.3 | 7.8 | 0.00 | 0.00 | 0.00 | 57 | 1016.0 |
| 20260507143001 | 61 | 157 | 4.3 | 7.0 | 0.00 | 0.00 | 0.00 | 56 | 1016.0 |
| 20260507141502 | 60 | 99 | 1.7 | 6.1 | 0.00 | 0.00 | 0.00 | 59 | 1016.0 |
| 20260507140006 | 59 | 156 | 2.6 | 6.1 | 0.00 | 0.00 | 0.00 | 61 | 1016.2 |
| 20260507134501 | 57 | 167 | 1.7 | 6.1 | 0.00 | 0.00 | 0.00 | 65 | 1016.2 |
| 20260507133001 | 57 | 166 | 2.6 | 6.1 | 0.00 | 0.00 | 0.00 | 68 | 1016.3 |
| 20260507131501 | 57 | 151 | 2.6 | 7.0 | 0.00 | 0.00 | 0.00 | 66 | 1016.5 |
| 20260507130002 | 58 | 159 | 2.6 | 7.0 | 0.00 | 0.00 | 0.00 | 67 | 1016.4 |
| 20260507124500 | 58 | 165 | 2.6 | 7.8 | 0.00 | 0.00 | 0.00 | 66 | 1016.4 |
| 20260507123001 | 58 | 199 | 2.6 | 8.7 | 0.00 | 0.00 | 0.00 | 66 | 1016.4 |
| 20260507121501 | 58 | 167 | 2.6 | 8.7 | 0.00 | 0.00 | 0.00 | 66 | 1016.4 |
| 20260507120003 | 59 | 190 | 3.5 | 8.7 | 0.00 | 0.00 | 0.00 | 65 | 1016.4 |
| 20260507114500 | 60 | 185 | 5.2 | 13.9 | 0.00 | 0.00 | 0.00 | 60 | 1016.3 |
| 20260507113000 | 60 | 161 | 5.2 | 10.4 | 0.00 | 0.00 | 0.00 | 60 | 1016.2 |
| 20260507111500 | 60 | 188 | 7.0 | 10.4 | 0.00 | 0.00 | 0.00 | 62 | 1016.3 |
| 20260507110003 | 60 | 148 | 5.2 | 12.2 | 0.00 | 0.00 | 0.00 | 61 | 1016.3 |
| 20260507104508 | 60 | 148 | 7.8 | 13.0 | 0.00 | 0.00 | 0.00 | 61 | 1016.4 |
| 20260507103002 | 60 | 173 | 5.2 | 13.0 | 0.00 | 0.00 | 0.00 | 60 | 1016.4 |
| 20260507101503 | 59 | 195 | 4.3 | 13.9 | 0.00 | 0.00 | 0.00 | 62 | 1016.4 |
| 20260507100002 | 58 | 155 | 6.1 | 14.8 | 0.00 | 0.00 | 0.00 | 61 | 1016.3 |
| 20260507094603 | 58 | 204 | 6.1 | 12.2 | 0.00 | 0.00 | 0.00 | 64 | 1016.3 |
| 20260507094503 | 58 | 177 | 6.1 | 12.2 | 0.00 | 0.00 | 0.00 | 63 | 1016.2 |
| 20260507093103 | 58 | 148 | 2.6 | 11.3 | 0.00 | 0.00 | 0.00 | 64 | 1016.3 |
| 20260507091600 | 59 | 165 | 3.5 | 9.6 | 0.00 | 0.00 | 0.00 | 64 | 1016.2 |
| 20260507090002 | 58 | 156 | 7.8 | 13.0 | 0.00 | 0.00 | 0.00 | 62 | 1016.2 |
| 20260507084607 | 58 | 125 | 2.6 | 8.7 | 0.00 | 0.00 | 0.00 | 63 | 1016.1 |
| 20260507083100 | 58 | 163 | 5.2 | 10.4 | 0.00 | 0.00 | 0.00 | 63 | 1016.0 |
| 20260507081601 | 55 | 178 | 3.5 | 9.6 | 0.00 | 0.00 | 0.00 | 69 | 1016.1 |
| 20260507080100 | 54 | 129 | 2.6 | 7.8 | 0.00 | 0.00 | 0.00 | 70 | 1016.1 |
| 20260507080003 | 54 | 90 | 2.6 | 7.8 | 0.00 | 0.00 | 0.00 | 70 | 1016.1 |
| 20260507074608 | 53 | 117 | 2.6 | 7.0 | 0.00 | 0.00 | 0.00 | 71 | 1015.8 |
| 20260507073102 | 53 | 355 | 2.6 | 7.8 | 0.00 | 0.00 | 0.00 | 72 | 1016.0 |
| 20260507071607 | 52 | 120 | 1.7 | 7.0 | 0.00 | 0.00 | 0.00 | 72 | 1015.9 |
| 20260507070108 | 51 | 180 | 2.6 | 7.8 | 0.00 | 0.00 | 0.00 | 72 | 1015.7 |
| 20260507070004 | 51 | 130 | 1.7 | 6.1 | 0.00 | 0.00 | 0.00 | 72 | 1015.7 |
| 20260507064601 | 51 | 178 | 1.7 | 6.1 | 0.00 | 0.00 | 0.00 | 73 | 1015.8 |
| 20260507063100 | 51 | 71 | 0.9 | 4.3 | 0.00 | 0.00 | 0.00 | 72 | 1015.9 |
| 20260507061600 | 50 | 34 | 1.7 | 4.3 | 0.00 | 0.00 | 0.00 | 73 | 1015.9 |
| 20260507060104 | 50 | 309 | 0.9 | 5.2 | 0.00 | 0.00 | 0.00 | 73 | 1015.7 |
| 20260507060002 | 50 | 323 | 0.0 | 5.2 | 0.00 | 0.00 | 0.00 | 72 | 1015.7 |
| 20260507054615 | 50 | 26 | 2.6 | 5.2 | 0.00 | 0.00 | 0.00 | 72 | 1015.7 |
| 20260507053108 | 50 | 75 | 1.7 | 7.0 | 0.00 | 0.00 | 0.00 | 72 | 1015.5 |
| 20260507051601 | 50 | 11 | 0.9 | 7.8 | 0.00 | 0.00 | 0.00 | 72 | 1015.5 |
| 20260507050009 | 50 | 324 | 0.9 | 7.0 | 0.00 | 0.00 | 0.00 | 72 | 1015.4 |
| 20260507044606 | 50 | 146 | 1.7 | 6.1 | 0.00 | 0.00 | 0.00 | 72 | 1015.4 |
| 20260507043101 | 51 | 176 | 2.6 | 7.0 | 0.00 | 0.00 | 0.00 | 72 | 1015.4 |
| 20260507041609 | 51 | 163 | 2.6 | 7.0 | 0.00 | 0.00 | 0.00 | 72 | 1015.4 |
| 20260507040100 | 51 | 156 | 1.7 | 7.0 | 0.00 | 0.00 | 0.00 | 72 | 1015.4 |
| 20260507040003 | 51 | 150 | 1.7 | 7.0 | 0.00 | 0.00 | 0.00 | 72 | 1015.4 |
| 20260507034609 | 51 | 130 | 2.6 | 7.8 | 0.00 | 0.00 | 0.00 | 72 | 1015.4 |
| 20260507033100 | 51 | 119 | 0.9 | 7.0 | 0.00 | 0.00 | 0.00 | 72 | 1015.4 |
| 20260507031601 | 51 | 86 | 0.9 | 7.0 | 0.00 | 0.00 | 0.00 | 71 | 1015.4 |
| 20260507030105 | 50 | 169 | 0.0 | 7.0 | 0.00 | 0.00 | 0.00 | 72 | 1015.4 |
| 20260507030002 | 50 | 136 | 0.9 | 7.0 | 0.00 | 0.00 | 0.00 | 72 | 1015.4 |
| 20260507024600 | 50 | 113 | 0.9 | 6.1 | 0.00 | 0.00 | 0.00 | 73 | 1015.4 |
| 20260507023100 | 49 | 209 | 0.9 | 5.2 | 0.00 | 0.00 | 0.00 | 75 | 1015.5 |
| 20260507021639 | 49 | 319 | 0.9 | 4.3 | 0.00 | 0.00 | 0.00 | 78 | 1015.3 |
| 20260507020113 | 49 | 5 | 0.0 | 4.3 | 0.00 | 0.00 | 0.00 | 78 | 1015.5 |
| 20260507020002 | 49 | 331 | 0.0 | 4.3 | 0.00 | 0.00 | 0.00 | 78 | 1015.5 |
| 20260507014623 | 49 | 288 | 1.7 | 4.3 | 0.00 | 0.00 | 0.00 | 78 | 1015.6 |
| 20260507013102 | 50 | 309 | 1.7 | 4.3 | 0.00 | 0.00 | 0.00 | 77 | 1015.5 |
| 20260507011607 | 50 | 346 | 0.9 | 3.5 | 0.00 | 0.00 | 0.00 | 76 | 1015.6 |
| 20260507010100 | 49 | 355 | 0.9 | 4.3 | 0.00 | 0.00 | 0.00 | 76 | 1015.7 |
| 20260507010002 | 49 | 13 | 0.9 | 4.3 | 0.00 | 0.00 | 0.00 | 76 | 1015.7 |
| 20260507004559 | 49 | 34 | 1.7 | 3.5 | 0.00 | 0.00 | 0.00 | 76 | 1015.7 |
| 20260507003100 | 50 | 65 | 0.0 | 1.7 | 0.00 | 0.00 | 0.00 | 76 | 1015.8 |
| 20260507001607 | 50 | 65 | 0.0 | 1.7 | 0.00 | 0.00 | 0.00 | 76 | 1015.8 |
| 20260507000125 | 50 | 65 | 0.0 | 0.0 | 0.00 | 0.00 | 0.00 | 75 | 1016.0 |
| 20260507000006 | 50 | 65 | 0.0 | 0.0 | 0.00 | 0.00 | 0.00 | 75 | 1016.0 |
| 20260506234502 | 50 | 65 | 0.0 | 0.9 | 0.00 | 0.00 | 0.00 | 75 | 1015.8 |
| 20260506233002 | 50 | 65 | 0.0 | 0.9 | 0.00 | 0.00 | 0.00 | 75 | 1015.8 |
| 20260506231502 | 50 | 65 | 0.0 | 0.9 | 0.00 | 0.00 | 0.00 | 74 | 1015.9 |
| 20260506230007 | 50 | 65 | 0.0 | 2.6 | 0.00 | 0.00 | 0.00 | 74 | 1016.0 |
| 20260506224502 | 50 | 260 | 0.0 | 2.6 | 0.00 | 0.00 | 0.00 | 74 | 1015.9 |
| 20260506223002 | 50 | 289 | 1.7 | 3.5 | 0.00 | 0.00 | 0.00 | 73 | 1015.8 |
| 20260506221504 | 50 | 70 | 0.0 | 4.3 | 0.00 | 0.00 | 0.00 | 72 | 1015.7 |
| 20260506220004 | 51 | 98 | 0.0 | 0.9 | 0.00 | 0.00 | 0.00 | 72 | 1015.6 |
| 20260506214502 | 51 | 73 | 0.9 | 3.5 | 0.00 | 0.00 | 0.00 | 72 | 1015.6 |
| 20260506213002 | 51 | 355 | 0.9 | 4.3 | 0.00 | 0.00 | 0.00 | 73 | 1015.6 |
| 20260506211504 | 51 | 46 | 0.0 | 2.6 | 0.00 | 0.00 | 0.00 | 74 | 1015.5 |
| 20260506210004 | 51 | 150 | 0.0 | 0.9 | 0.00 | 0.00 | 0.00 | 73 | 1015.5 |
| 20260506204502 | 52 | 165 | 0.0 | 0.9 | 0.00 | 0.00 | 0.00 | 73 | 1015.5 |